Regional Weather Roundup
Issued by NWS Sioux Falls, SD

Home | Current Version | Previous Version | Text Only | Print | Product List | Glossary On
Versions: 1 2 3 4 5 6 7 8 9 10 11 12 13 14 15 16 17 18 19 20 21 22 23 24 25 26 27 28 29 30 31 32 33 34 35 36 37 38 39 40 41 42 43 44 45 46 47 48 49 50
866
ASUS43 KFSD 041302
RWRFSD

WEATHER ROUNDUP FOR SE SOUTH DAKOTA/SW MINNESOTA/NW IOWA
NATIONAL WEATHER SERVICE SIOUX FALLS SD
800 AM CDT WED MAY 04 2016

NOTE: "FAIR" INDICATES FEW OR NO CLOUDS BELOW 12,000 FEET WITH NO
SIGNIFICANT WEATHER AND OR OBSTRUCTIONS TO VISIBILITY.


SDZ038>040-050-052>070-041400-
SOUTHEAST SOUTH DAKOTA

CITY           SKY/WX    TMP DP  RH WIND       PRES   REMARKS
BROOKINGS      SUNNY     43  34  70 NW7       30.06
CHAMBERLAIN    NOT AVBL
HURON          SUNNY     44  35  70 W13G20    30.11R
MADISON        FAIR      45  37  76 N8        30.07R
MITCHELL       SUNNY     45  37  73 N8        30.11R
SIOUX FALLS    SUNNY     48  36  63 N9        30.07R
WINNER         FAIR      45  37  73 W5        30.14R
YANKTON        SUNNY     46  36  66 NW15      30.08R
$$

MNZ071-072-080-081-089-090-097-098-041400-
SOUTHWEST MINNESOTA

CITY           SKY/WX    TMP DP  RH WIND       PRES   REMARKS
FAIRMONT       SUNNY     48  34  57 N10       30.00R
JACKSON        SUNNY     46  34  61 VRB7      30.02R
LUVERNE        SUNNY     46  32  57 N7        30.05R
MARSHALL       SUNNY     46  35  65 NW8       30.06R
MONTEVIDEO     SUNNY     48  36  61 N5        30.07R
PIPESTONE      SUNNY     46  34  61 N3        30.04R
REDWOOD FALLS  SUNNY     48  33  56 N8        30.03R
TRACY          SUNNY     47  36  66 NW9       30.04R
WINDOM         SUNNY     46  36  66 N10       30.02R
WORTHINGTON    SUNNY     46  36  68 N12       30.04R
$$

IAZ001>003-012>014-020>022-031-032-NEZ013-014-SDZ071-041400-
NORTHWEST IOWA

CITY           SKY/WX    TMP DP  RH WIND       PRES   REMARKS
DENISON        SUNNY     48  37  66 NE7       29.98R
ESTHERVILLE    SUNNY     47  37  68 N13       30.00R
SIOUX CITY     SUNNY     49  38  65 NW13      30.04R
SPENCER        SUNNY     48  35  60 N12       30.01R
STORM LAKE     SUNNY     48  36  61 N15       30.01R
$$

ABBREVIATIONS USED IN REMARKS
   TC - TEMPERATURE IN CELSIUS
  WCI - WIND CHILL INDEX
   HX - HEAT INDEX
  VSB - VISIBILITY





USA.gov is the U.S. government's official web portal to all federal, state and local government web resources and services.